FW3691 Weather Reports


time (UTC)temp
F
wind
direction
speed
knots
gust
knots
rain 1hr
in
rain 24hr
in
rain mn
in
humidity
%
barometer
mb
20260906193033 104 176 0.9 4.3 0.00 0.00 0.00 35 1011.3
20260906191540 105 113 1.7 7.0 0.00 0.00 0.00 32 1011.5
20260906190038 104 173 1.7 3.5 0.00 0.00 0.00 34 1011.7
20260906184523 102 36 0.0 5.2 0.00 0.00 0.00 38 1011.9
20260906183027 101 32 1.7 4.3 0.00 0.00 0.00 39 1012.1
20260906181532 102 74 0.9 3.5 0.00 0.00 0.00 39 1012.4
20260906180019 101 58 0.9 4.3 0.00 0.00 0.00 39 1012.6
20260906174516 100 146 0.9 3.5 0.00 0.00 0.00 41 1013.0
20260906173014 99 288 0.9 3.5 0.00 0.00 0.00 41 1013.2
20260906171513 99 269 1.7 5.2 0.00 0.00 0.00 42 1013.4
20260906170013 100 194 0.9 2.6 0.00 0.00 0.00 45 1013.6
20260906164507 98 259 0.0 3.5 0.00 0.00 0.00 47 1013.8
20260906163004 96 255 0.0 4.3 0.00 0.00 0.00 48 1014.0
20260906161505 96 285 0.0 3.5 0.00 0.00 0.00 49 1013.8
20260906160058 96 342 0.9 3.5 0.00 0.00 0.00 49 1014.0
20260906154558 95 259 0.0 3.5 0.00 0.00 0.00 52 1014.0
20260906153054 93 146 0.0 2.6 0.00 0.00 0.00 56 1013.9
20260906151555 92 252 0.9 2.6 0.00 0.00 0.00 55 1013.8
20260906150049 91 254 0.0 1.7 0.00 0.00 0.00 57 1013.9
20260906144541 89 255 0.0 1.7 0.00 0.00 0.00 61 1013.7
20260906143048 88 257 0.0 2.6 0.00 0.00 0.00 63 1013.8
20260906141532 87 262 0.9 3.5 0.00 0.00 0.00 64 1013.7
20260906140041 85 186 0.0 1.7 0.00 0.00 0.00 67 1013.9
20260906134523 83 186 0.0 1.7 0.00 0.00 0.00 72 1013.6
20260906133020 80 141 0.0 0.0 0.00 0.00 0.00 77 1013.6
20260906131520 78 136 0.0 0.0 0.00 0.00 0.00 80 1013.6
20260906130036 77 142 0.0 0.0 0.00 0.00 0.00 80 1013.6
20260906124518 76 142 0.0 0.0 0.00 0.00 0.00 81 1013.4
20260906123017 75 142 0.0 0.0 0.00 0.00 0.00 82 1013.3
20260906121514 75 142 0.0 0.0 0.00 0.00 0.00 82 1013.3
20260906120013 75 142 0.0 0.0 0.00 0.00 0.00 81 1013.2
20260906114510 76 142 0.0 0.0 0.00 0.00 0.00 82 1013.0
20260906113007 76 142 0.0 0.0 0.00 0.00 0.00 81 1012.6
20260906111508 77 142 0.0 0.0 0.00 0.00 0.00 78 1012.5
20260906110010 77 142 0.0 0.0 0.00 0.00 0.00 77 1012.4
20260906104505 78 142 0.0 0.0 0.00 0.00 0.00 77 1012.4
20260906103101 78 142 0.0 0.0 0.00 0.00 0.00 77 1012.4
20260906101600 78 142 0.0 0.0 0.00 0.00 0.00 77 1012.5
20260906100058 78 142 0.0 0.0 0.00 0.00 0.00 77 1012.6
20260906094556 79 142 0.0 0.0 0.00 0.00 0.00 77 1012.4
20260906093113 79 142 0.0 0.0 0.00 0.00 0.00 76 1012.3
20260906091557 79 142 0.0 0.0 0.00 0.00 0.00 75 1012.3
20260906090051 79 142 0.0 0.0 0.00 0.00 0.00 75 1012.1
20260906084550 80 142 0.0 0.0 0.00 0.00 0.00 73 1012.1
20260906083049 80 142 0.0 0.0 0.00 0.00 0.00 71 1011.9
20260906081552 81 142 0.0 0.0 0.00 0.00 0.00 69 1011.8
20260906080048 82 142 0.0 0.9 0.00 0.00 0.00 68 1011.7
20260906074547 82 142 0.0 0.0 0.00 0.00 0.00 66 1011.8
20260906073045 80 142 0.0 0.0 0.00 0.00 0.00 70 1011.7
20260906071553 81 142 0.0 0.0 0.00 0.00 0.00 72 1011.8
20260906070042 82 142 0.0 0.0 0.00 0.00 0.00 69 1011.9
20260906064543 82 142 0.0 0.0 0.00 0.00 0.00 67 1011.9
20260906063040 82 142 0.0 0.0 0.00 0.00 0.00 66 1011.9
20260906061541 82 142 0.0 0.0 0.00 0.00 0.00 67 1011.9
20260906060038 82 142 0.0 0.0 0.00 0.00 0.00 69 1012.0
20260906054535 83 142 0.0 0.0 0.00 0.00 0.00 67 1011.9
20260906053037 83 142 0.0 0.0 0.00 0.00 0.00 64 1011.9
20260906051535 83 142 0.0 0.0 0.00 0.00 0.00 66 1011.7
20260906050049 83 142 0.0 0.0 0.00 0.00 0.00 67 1011.7
20260906044531 84 142 0.0 2.6 0.00 0.00 0.00 64 1011.8
20260906043028 84 242 0.0 0.0 0.00 0.00 0.00 63 1011.7
20260906041528 84 242 0.0 0.0 0.00 0.00 0.00 63 1011.5
20260906040028 85 242 0.0 0.0 0.00 0.00 0.00 61 1011.7
20260906034538 86 242 0.0 0.0 0.00 0.00 0.00 59 1011.7
20260906033028 87 242 0.0 0.0 0.00 0.00 0.00 58 1011.3
20260906031528 86 242 0.0 0.0 0.00 0.00 0.00 60 1011.5
20260906030024 87 242 0.0 2.6 0.00 0.00 0.00 58 1011.5
20260906024525 88 165 0.0 0.0 0.00 0.00 0.00 57 1011.3
20260906023026 89 165 0.0 0.0 0.00 0.00 0.00 54 1011.1
20260906021524 89 165 0.0 0.0 0.00 0.00 0.00 52 1010.8
20260906020027 90 165 0.0 0.0 0.00 0.00 0.00 50 1010.7
20260906014526 90 165 0.0 0.0 0.00 0.00 0.00 49 1010.7
20260906013021 91 165 0.0 0.0 0.00 0.00 0.00 49 1010.5
20260906011522 93 165 0.0 0.0 0.00 0.00 0.00 47 1010.5
20260906010022 94 165 0.0 0.0 0.00 0.00 0.00 45 1010.3
20260906004523 96 165 0.0 0.0 0.00 0.00 0.00 43 1010.3
20260906003020 98 165 0.0 0.0 0.00 0.00 0.00 41 1010.2
20260906001522 100 165 0.0 0.0 0.00 0.00 0.00 40 1010.1
20260906000019 100 165 0.0 1.7 0.00 0.00 0.00 39 1010.2
20260905234518 101 165 0.0 1.7 0.00 0.00 0.00 38 1010.1
20260905233025 101 165 0.9 2.6 0.00 0.00 0.00 37 1009.7
20260905231517 101 174 0.9 2.6 0.00 0.00 0.00 35 1009.6
20260905230016 102 163 0.0 4.3 0.00 0.00 0.00 35 1009.6
20260905224516 102 157 0.0 4.3 0.00 0.00 0.00 35 1009.7
20260905223014 102 163 0.0 3.5 0.00 0.00 0.00 36 1009.9
20260905221512 102 138 0.0 3.5 0.00 0.00 0.00 34 1010.0
20260905220011 102 66 0.0 3.5 0.00 0.00 0.00 35 1010.1
20260905214509 102 257 0.9 5.2 0.00 0.00 0.00 34 1010.2
20260905213008 102 114 0.9 3.5 0.00 0.00 0.00 35 1010.4
20260905211508 102 180 0.9 5.2 0.00 0.00 0.00 36 1010.5
20260905210005 102 137 1.7 5.2 0.00 0.00 0.00 37 1010.8
20260905204508 102 187 0.0 3.5 0.00 0.00 0.00 37 1011.0
20260905203102 102 151 0.0 6.1 0.00 0.00 0.00 36 1011.2
20260905203001 102 151 0.0 6.1 0.00 0.00 0.00 36 1011.2
20260905201605 102 228 0.9 6.1 0.00 0.00 0.00 38 1011.4
20260905200059 101 241 1.7 7.0 0.00 0.00 0.00 40 1011.9
20260905194556 101 144 0.9 5.2 0.00 0.00 0.00 39 1012.1